Dewpoint
33 27 25 25 25 26 26 26 24 23 23 27 26 25 24 24 25 26 27 28 27 22 21 22 22 21 22 22 23 23 25 26 25 25 25 25 25 25 25 25 26 27 28 31 34 36 37 40 41 42 44 45 46 47 48 48 48 48 47 47 47 47 45 46 46 46 47 46 46 47 46 44 44 43 42 40 39 38 39 40 41 41 41 42 42 41
32 26 27 27 26 26 26 27 27 27 26 25 26 25 25 25 24 25 25 27 28 24 23 24 22 22 22 22 23 23 23 23 24 24 24 25 25 25 26 26 26 26 29 33 34 36 37 39 40 42 43 45 46 47 48 47 47 47 47 47 47 46 46 47 47 47 48 47 47 46 42 39 40 40 40 38 37 36 38 36 37 38 39 39 38 37
27 26 26 27 28 27 27 27 27 26 26 26 25 25 24 25 26 26 27 27 27 24 23 24 23 24 24 25 25 25 23 23 23 23 24 24 24 25 25 26 26 27 27 30 32 35 37 39 40 42 43 45 46 47 48 47 47 47 47 47 46 45 45 46 47 47 46 44 41 41 38 37 33 33 35 34 32 32 32 32 33 34 35 36 36 35
25 27 28 28 28 28 28 27 27 27 26 25 25 24 24 26 23 20 24 28 24 24 24 24 24 24 25 25 25 26 25 25 25 24 24 25 24 24 24 25 26 26 27 27 30 34 36 38 40 41 43 44 46 47 47 47 47 47 46 47 46 45 45 45 46 42 39 37 35 33 32 31 31 30 32 31 33 32 32 30 30 31 33 34 33 33
24 26 31 29 29 27 27 27 27 26 25 26 26 25 25 25 26 23 22 27 28 28 27 26 26 26 26 26 26 26 29 29 27 27 27 27 28 27 29 29 28 25 26 27 29 32 36 38 39 41 42 44 46 47 48 47 47 47 47 46 45 45 45 44 40 37 35 34 33 32 30 30 29 29 28 30 30 29 29 29 29 28 29 31 31 31
27 27 31 29 28 27 28 27 28 28 25 26 27 27 26 26 25 25 26 26 26 25 27 25 22 23 25 26 27 28 29 29 29 29 28 28 28 29 27 27 27 30 29 27 28 31 34 36 38 40 42 44 46 47 48 47 47 47 47 46 45 45 45 41 36 35 35 36 35 34 36 36 35 32 33 34 31 28 31 29 26 26 27 28 28 28
27 30 30 29 29 27 27 27 28 28 26 24 25 28 27 26 26 26 26 26 22 20 25 26 20 21 24 25 25 26 28 28 28 29 29 29 29 29 30 30 29 29 28 29 29 31 34 36 38 40 42 44 45 47 48 47 47 47 46 45 45 44 42 39 35 35 36 35 36 38 40 39 37 36 35 30 29 29 27 25 25 25 25 26 26 25
30 30 30 30 29 28 27 26 29 28 27 25 27 28 28 27 26 27 26 27 26 25 27 27 26 24 24 25 27 27 27 27 27 27 28 28 29 29 30 30 30 31 29 29 29 31 33 35 37 38 41 43 45 46 47 47 47 47 46 45 44 42 39 38 36 36 38 37 37 39 40 39 39 38 33 25 25 25 24 24 23 23 23 24 24 25
30 28 29 28 28 27 27 28 30 29 26 27 29 29 28 28 27 26 26 25 25 25 25 25 26 23 24 27 28 29 27 27 27 27 28 28 29 29 30 31 31 31 30 29 30 30 32 34 36 38 40 43 45 47 47 47 47 47 46 45 43 40 38 36 35 36 37 38 39 40 39 39 32 31 27 25 26 24 23 23 23 22 23 23 23 23
25 30 30 30 29 27 29 29 31 30 27 28 29 29 29 28 27 26 25 26 25 23 24 25 26 19 20 25 26 28 27 27 27 27 27 27 28 29 30 31 32 32 30 29 30 31 33 34 36 38 40 43 45 47 47 47 47 46 45 43 41 39 38 36 35 35 35 37 38 38 37 35 29 25 23 23 23 22 22 22 21 22 22 22 22 22
29 35 33 30 29 28 31 31 31 30 29 31 30 30 29 27 26 24 25 24 21 20 25 26 26 24 20 25 25 25 27 27 26 26 26 27 28 29 31 32 33 32 30 30 31 32 33 34 37 39 41 43 45 47 47 46 46 45 44 42 40 38 37 35 35 35 35 36 37 37 36 32 28 25 23 22 21 21 21 21 20 21 21 21 21 22
30 30 30 31 34 32 33 31 31 30 31 31 28 27 28 27 21 21 17 21 19 21 21 24 27 25 21 23 26 27 28 28 25 23 24 25 26 28 31 32 32 31 30 31 31 32 34 35 37 39 41 43 45 46 46 46 44 44 42 40 39 37 36 35 35 35 35 36 36 36 34 31 28 26 25 22 20 20 19 19 20 20 20 20 21 20
27 29 31 31 35 32 30 32 30 32 31 30 29 28 22 19 18 12 15 17 18 18 19 23 26 25 25 23 25 27 28 28 28 28 27 27 27 29 31 32 31 30 30 31 32 33 34 35 36 39 40 42 44 45 46 45 43 42 41 39 39 37 36 35 34 34 34 34 34 34 32 30 26 25 24 22 20 19 19 18 19 18 18 19 19 19
25 27 29 30 30 33 32 27 28 27 30 29 29 27 22 14 14 12 11 5 13 16 20 22 23 23 23 25 27 27 27 28 29 29 30 30 30 30 31 31 30 30 31 32 32 33 34 35 36 38 40 42 44 45 45 44 43 41 40 39 39 37 36 35 35 34 33 33 32 31 31 29 27 25 23 22 19 17 18 19 18 17 17 17 16 17
16 18 22 30 26 33 31 26 29 28 30 29 29 28 26 20 15 10 8 5 10 13 17 20 18 20 19 20 26 28 28 29 30 29 30 31 31 31 31 31 30 29 30 31 32 33 34 35 36 38 40 41 43 44 44 43 42 41 40 38 38 37 35 35 35 34 33 32 31 29 29 27 25 24 22 20 20 16 16 16 17 16 16 16 15 16
21 18 22 30 29 32 31 32 32 31 29 29 29 29 23 23 17 7 12 10 10 15 16 16 21 23 22 25 28 29 29 29 30 29 30 30 30 31 30 31 31 31 31 32 32 32 34 35 36 37 39 40 42 43 44 43 41 40 39 38 38 37 35 34 34 33 32 31 29 28 27 25 25 24 21 20 19 15 15 15 15 15 15 15 15 17
22 21 27 30 31 31 31 31 30 26 19 26 29 27 27 26 20 16 17 16 15 11 19 16 23 25 26 25 26 27 27 27 28 28 28 29 29 28 29 30 30 30 31 31 32 32 33 34 35 36 38 39 41 42 43 43 41 40 39 37 37 36 34 33 32 31 30 28 26 26 25 25 24 22 19 17 15 14 14 15 14 14 14 15 16 19
20 21 28 29 29 30 31 31 30 31 28 29 25 27 29 28 27 22 16 14 16 18 16 19 19 21 20 18 25 26 26 27 27 27 28 28 29 28 29 29 30 30 31 31 31 31 33 35 35 36 37 39 40 42 42 42 41 40 39 37 36 35 33 32 31 30 28 26 25 24 24 23 22 21 18 17 14 13 14 14 14 15 16 15 18 20
24 18 25 30 29 29 30 30 30 30 30 29 28 30 26 21 19 24 19 14 13 12 17 19 21 22 22 20 22 24 26 26 26 27 28 28 28 29 29 29 29 29 29 30 31 32 33 34 35 36 37 37 39 40 41 42 41 40 39 37 36 35 33 31 30 29 27 25 26 25 23 23 22 20 17 16 15 14 13 13 14 15 15 17 20 21
26 19 21 30 28 29 30 30 28 28 29 30 30 28 29 28 21 20 23 17 17 11 8 16 17 14 25 24 23 22 25 27 26 27 27 28 28 29 29 30 29 29 30 31 31 32 33 34 35 35 36 37 38 39 40 41 41 40 39 37 36 35 33 31 29 27 25 24 24 25 23 22 22 20 17 15 14 13 13 13 14 15 16 17 20 20
25 22 16 25 29 29 28 29 28 29 29 27 27 27 28 24 27 26 23 21 18 8 8 13 16 15 24 27 25 24 24 26 27 27 29 29 29 29 30 30 30 30 30 31 31 32 32 33 34 35 35 36 36 36 37 39 40 40 39 37 36 34 32 30 28 26 25 23 22 22 20 19 18 16 16 14 14 13 12 13 15 15 16 19 19 19
22 21 19 26 27 27 29 28 29 30 30 29 28 28 28 27 22 18 21 25 17 17 19 11 16 19 25 29 27 26 26 27 29 28 29 29 29 30 31 30 30 30 30 30 31 32 32 32 33 33 33 34 35 35 36 37 39 39 38 37 36 34 32 29 27 25 24 22 22 20 18 17 16 15 15 13 13 13 13 14 15 16 18 17 19 19
27 27 24 24 27 28 28 29 30 29 30 29 29 28 30 28 26 20 16 20 20 23 21 17 13 19 25 28 28 28 28 28 28 29 28 29 30 30 30 30 30 30 30 30 31 31 31 32 33 34 34 34 35 36 36 36 37 38 37 36 35 34 32 30 27 25 23 21 20 19 17 16 15 14 13 13 13 12 13 14 15 17 16 17 18 18
33 28 23 27 27 27 29 29 29 29 30 29 29 27 29 28 28 25 22 24 25 20 20 16 17 21 26 27 27 28 28 28 26 27 29 29 29 29 29 29 29 29 29 29 29 29 31 31 32 32 33 34 34 35 35 36 36 37 37 35 34 33 31 29 27 25 23 21 20 18 16 15 14 12 12 11 12 11 12 14 15 18 16 17 17 17
27 30 27 25 22 25 28 29 29 28 29 28 27 28 29 29 28 27 24 21 20 24 24 23 20 21 27 28 26 26 26 26 26 27 28 28 29 30 30 29 28 28 28 28 29 30 29 30 31 32 33 34 34 34 35 35 35 35 36 35 33 32 31 29 27 25 22 21 19 17 15 14 12 11 11 10 11 10 12 14 15 16 15 15 16 16
30 30 27 24 22 19 18 21 24 27 29 28 27 28 30 30 29 27 25 23 22 24 25 23 21 24 27 29 28 27 27 27 27 27 25 28 29 29 29 29 28 28 29 29 28 29 30 31 31 32 32 33 34 34 34 35 35 35 35 34 33 32 31 29 27 25 22 20 19 17 14 13 12 11 10 10 10 10 12 14 15 15 14 14 15 14
30 31 29 26 24 22 21 24 29 30 27 28 28 29 29 30 30 29 27 26 25 25 25 26 24 23 26 27 27 27 25 26 27 27 27 28 27 28 28 29 29 29 29 29 29 30 29 30 31 31 32 33 33 33 34 34 34 34 34 33 32 32 30 29 27 25 22 20 18 17 14 13 12 11 10 10 10 11 13 14 14 15 14 14 14 13
32 30 30 29 27 25 24 28 29 31 29 29 29 29 30 30 30 30 28 26 28 26 24 27 27 27 26 27 29 28 28 28 28 27 27 27 27 28 29 29 32 29 28 28 28 29 29 30 30 31 31 31 32 33 33 34 34 34 33 33 32 31 30 29 27 25 23 21 19 17 16 14 13 11 11 10 10 12 13 14 15 15 14 15 13 13
32 28 31 32 29 28 26 27 31 30 30 30 30 30 30 30 30 30 30 29 28 27 24 25 29 28 27 28 29 29 28 27 27 27 28 28 27 27 27 28 28 29 28 28 29 29 29 29 30 30 30 31 31 32 32 33 33 33 33 32 31 31 30 28 26 25 23 21 19 18 16 15 13 13 12 13 12 13 14 15 15 15 15 15 13 13
32 30 30 32 30 30 29 29 31 30 29 29 30 30 30 31 31 31 30 30 30 29 29 29 29 28 28 28 30 31 30 30 29 28 28 27 28 28 27 27 28 28 29 29 29 29 29 29 29 30 30 30 31 31 32 32 33 33 33 32 31 30 29 27 26 25 24 22 21 19 17 15 15 14 13 13 13 13 15 15 16 16 16 16 15 14
35 30 33 32 30 30 31 31 30 30 30 28 29 30 31 31 31 31 31 30 31 30 30 30 30 29 30 31 31 32 32 32 31 30 29 29 29 29 29 28 28 28 29 29 29 29 29 29 29 29 30 30 30 30 31 32 32 32 32 32 31 30 29 27 26 26 24 24 22 20 17 16 16 15 15 14 14 18 17 17 18 19 19 18 17 17
35 32 33 32 30 30 32 32 32 31 31 30 29 30 30 31 30 30 30 31 30 30 30 30 30 29 30 32 32 32 32 32 31 31 31 31 31 30 30 30 29 29 29 29 29 30 29 29 29 29 29 30 30 30 30 31 31 32 32 31 30 29 27 26 26 25 25 24 22 21 19 18 18 17 17 18 19 21 21 20 21 21 21 20 19 19
34 32 32 32 31 31 34 33 32 32 31 29 29 30 30 30 30 31 32 32 31 31 30 29 29 30 31 31 31 31 32 32 32 32 32 32 32 32 31 31 31 30 30 30 30 30 30 30 29 29 29 29 30 30 30 30 31 31 31 31 30 27 26 26 26 25 25 24 23 21 20 20 20 19 21 21 21 22 22 21 21 21 21 20 20 19
34 34 33 34 31 31 32 32 32 30 24 26 36 34 31 30 30 29 30 31 32 32 30 30 30 30 31 31 31 31 31 32 32 33 33 33 33 33 32 32 31 31 31 31 31 31 31 30 30 30 30 30 30 30 30 30 30 30 30 30 27 26 25 25 25 25 25 24 23 22 21 21 23 22 22 21 22 21 22 21 21 21 21 21 21 20
34 34 33 34 31 31 32 32 29 24 26 35 36 36 34 31 30 30 31 30 31 32 32 32 32 31 31 31 31 32 32 32 33 33 33 32 32 32 33 33 32 32 31 31 31 31 30 30 30 30 29 29 29 29 29 29 29 29 29 27 26 25 25 25 25 24 24 24 23 22 23 22 23 23 22 23 23 23 22 21 22 22 22 22 21 20
34 34 33 33 33 32 30 31 24 23 30 34 35 34 32 33 32 31 30 31 31 31 32 32 32 32 32 32 32 32 32 33 32 33 33 31 31 33 33 33 33 32 31 31 31 31 31 31 30 30 29 29 29 28 29 28 29 28 28 26 26 25 25 25 25 24 24 24 23 23 22 23 24 24 24 23 23 23 22 22 22 22 22 21 21 20
37 35 34 32 33 29 29 30 29 32 32 32 32 31 33 32 32 31 29 30 31 31 31 31 32 32 32 32 32 32 31 31 32 32 31 33 33 34 34 33 33 33 33 32 31 31 30 30 30 30 29 28 28 28 28 28 28 27 26 25 25 24 24 25 25 24 24 24 23 22 22 23 23 24 24 24 23 24 23 23 22 22 22 21 21 20
38 35 35 32 31 33 30 29 30 29 27 29 32 30 33 34 33 33 31 30 32 32 32 31 31 31 32 32 32 31 31 30 31 31 32 33 34 34 34 33 31 29 28 29 29 29 29 28 28 28 28 28 27 27 27 27 27 26 25 25 25 25 24 24 24 24 24 23 24 22 22 23 25 25 25 25 24 24 24 23 23 22 22 21 21 21
37 38 35 33 32 32 30 28 28 26 28 31 32 32 33 34 34 33 31 30 32 33 33 32 31 31 31 31 32 31 30 30 31 31 31 33 30 29 30 30 28 28 28 28 29 29 27 27 28 28 27 27 26 26 26 27 26 26 25 25 24 25 24 25 27 25 25 26 24 24 24 24 25 26 25 24 25 24 24 24 23 23 23 22 22 22
35 35 34 32 31 32 30 29 27 30 29 33 31 30 33 34 34 33 27 29 33 33 33 33 32 32 32 32 33 32 31 31 31 32 28 27 28 28 28 29 28 27 27 27 27 27 27 27 27 26 26 26 25 25 26 26 26 26 25 25 24 25 25 24 25 26 25 24 24 24 25 25 25 26 25 25 25 25 25 25 24 24 24 23 23 23
33 33 34 30 30 31 32 30 31 32 33 34 29 28 30 34 33 30 27 29 32 33 33 34 33 33 33 33 33 32 32 33 30 27 27 26 26 26 25 25 26 26 26 26 27 28 27 26 26 26 26 25 25 25 26 26 26 26 25 24 24 24 24 25 25 25 25 25 25 25 26 26 26 26 26 26 26 26 26 25 25 25 24 23 23 22
32 32 32 33 31 30 30 29 29 30 33 32 28 32 34 32 27 28 31 27 32 31 34 34 34 34 34 34 34 33 31 23 26 25 26 25 25 25 25 25 26 26 26 26 27 27 27 26 25 24 23 24 24 25 26 26 26 25 25 24 24 24 26 27 26 26 26 26 26 26 26 26 27 27 27 27 27 26 26 26 26 25 24 22 22 21
32 31 30 30 31 32 31 30 29 26 31 33 32 30 30 31 31 31 26 24 28 31 33 31 34 34 33 34 32 31 25 25 26 25 24 25 25 25 25 25 26 26 26 27 27 26 26 24 23 23 23 24 24 25 26 26 25 25 25 24 23 26 27 27 27 27 27 26 26 26 26 26 27 27 27 27 27 26 25 25 24 23 23 22 21 20
34 31 31 31 33 29 29 28 27 30 33 34 33 31 32 32 29 28 30 27 25 28 32 32 30 30 30 33 29 24 24 23 23 24 23 23 23 23 23 24 24 25 25 25 25 25 25 23 23 24 24 25 25 26 26 26 25 25 25 26 27 27 28 28 28 28 27 27 26 26 26 26 26 27 27 26 26 26 25 23 23 22 21 20 19 18
35 32 32 31 33 32 30 31 33 31 33 33 31 30 32 31 27 28 30 30 28 27 27 30 31 28 29 30 27 24 23 24 25 24 25 23 23 24 24 24 24 25 25 25 25 24 24 24 24 24 24 25 26 27 28 28 27 27 26 25 26 27 27 27 27 27 26 26 26 26 26 25 25 25 25 25 25 24 23 21 20 19 17 18 17 16
31 32 31 31 32 32 31 31 30 30 31 32 30 29 27 26 27 27 28 27 26 27 28 30 29 27 24 25 25 21 24 23 23 21 22 22 22 21 22 23 22 23 23 24 24 24 24 24 24 23 23 23 24 25 26 27 28 27 25 24 26 26 26 26 26 26 26 25 25 24 24 24 23 23 23 23 23 23 22 21 19 19 17 16 16 15
32 31 30 30 32 32 31 30 31 31 30 30 30 30 26 26 25 26 26 26 26 26 27 27 27 23 22 23 25 23 22 22 22 21 21 21 21 22 22 22 22 22 23 24 24 24 24 24 24 24 23 22 22 22 22 21 22 23 23 23 24 24 24 25 24 23 22 22 21 21 22 22 21 20 20 19 20 19 19 19 18 18 16 15 15 13
32 33 32 31 31 33 33 32 32 29 30 28 30 29 28 27 20 18 21 22 24 25 26 24 20 20 22 22 22 22 21 21 21 20 20 21 21 21 21 22 21 21 20 21 22 23 23 23 23 23 23 22 21 20 18 17 17 17 19 19 21 22 23 22 21 20 18 16 16 17 18 19 15 18 18 16 17 17 16 15 16 17 16 15 14 14
32 34 31 32 33 31 31 32 30 30 31 32 31 30 30 29 24 25 26 25 26 24 22 22 19 19 20 20 21 21 21 21 21 21 21 20 20 21 21 21 20 20 20 21 20 22 23 22 22 21 21 20 20 17 15 13 12 13 15 17 18 22 21 19 17 17 16 16 16 15 15 16 16 16 16 14 12 10 12 14 13 14 12 10 13 14
31 31 31 32 29 31 32 34 31 31 31 34 32 31 30 29 26 26 25 26 25 23 23 22 20 18 17 19 21 22 23 21 20 21 22 21 21 21 21 21 20 19 18 19 21 22 22 22 22 21 20 18 16 13 11 10 10 9 10 13 15 19 18 17 16 15 14 14 14 13 13 13 12 11 13 14 13 12 11 16 20 17 15 12 17 20
33 32 33 32 31 31 34 32 32 34 32 33 33 30 31 29 25 24 26 27 25 22 21 20 18 18 18 18 19 23 22 21 20 21 21 21 21 21 22 21 21 20 20 21 22 22 22 21 20 19 16 13 10 8 8 7 7 9 9 11 14 18 18 17 16 14 13 13 13 12 12 11 10 9 10 10 12 12 12 10 12 22 21 21 22 20